Location: Oberkirch
(48.5323°N, 8.0787°E)
Time: 15:29:19
(UTC+00:00)

Tiros 1 despin weight - Pass Details

Date: 16 February 2026
Orbit: 556 x 593 km, 48.2° (Epoch: 5 March)

Event Time Altitude Azimuth Distance (km) Brightness Sun altitude
Rises 20:23:31 0° 283° (WNW) 2,737 ? -35.3°
Reaches altitude 10° 20:25:56 10° 273° (W) 1,842 ? -35.6°
Enters shadow 20:26:21 12° 270° (W) 1,695 ? -35.7°
